Location: Saratoga Springs
(43.0831°N, 73.7850°W)
Time: 03:50:25
(UTC-04:00)

Vanguard 2 Rocket - Pass Details

Date: 21 April 2024
Orbit: 556 x 3304 km, 32.9° (Epoch: 17 May)

Event Time Altitude Azimuth Distance (km) Brightness Sun altitude
Rises 04:34:45 0° 280° (W) 7,285 11.1 -15.3°
Reaches altitude 10° 04:40:58 10° 270° (W) 6,145 10.6 -14.4°
Maximum altitude 04:54:47 27° 223° (SW) 4,205 9.7 -12.2°
Drops below altitude 10° 05:05:11 10° 173° (S) 4,534 10.2 -10.5°
Sets 05:08:57 0° 161° (SSE) 5,132 10.7 -9.9°
